Capitol Logistics 83


NZAA
Auckland International Airport
Auckland, NZ
PHNL
Daniel K Inouye International Airport
Honolulu, US

Route Details

Aircraft Information
Primary: Boeing 747-400BCF
Backup: Boeing 777-200LRF
Route Data
Distance: 3832nm
Sched. Duration: 9h 00m
Avg. Duration: 8h 48m (-52m)
Times Flown: 3
Recm'd Route: TARIB G347 UBRAX OVLAD CUFFY A579 CROBY A579 CHEEM A579 CARRP OPACA4
Planned Altitude: 33,000ft
Origin Wx: NZAA 311300Z AUTO 12008KT 9999 -RA FEW046/// BKN060/// OVC075/// 14/13 Q1017 TEMPO 6000 RA
Dest. Wx: PHNL 311253Z 04007KT 010V070 10SM FEW024 FEW047 24/17 A3008 RMK AO2 SLP186 T02440172
Notes:

Financial History
Total Freight: 425,573lbs
Average Load: 141,858lbs/flt
Fuel Used: 518,102lbs
Avg. Fuel Used: 172,701lbs/flt
Fuel Expense: $196,879
Avg. Fuel Expense: $65,626
Avg. Fuel Cost: $0.38/lbs
Total Gross Income: $1,430,615
Pilot Pay: $617
Total Expenses: $154,662
Total Revenue: $1,072,568
Average Revenue: $476,871.57